Time,TemperatureF,DewpointF,PressureIn,WindDirection,WindDirectionDegrees,WindSpeedMPH,WindSpeedGustMPH,Humidity,HourlyPrecipIn,Conditions,Clouds,dailyrainin,SoftwareType,DateUTC
2013-04-29 00:00:00,74.5,66.8,30.04,SSW,197,0.0,1.0,77,0.75,,,0.02,Wunderground v.1.15,2013-04-29 04:00:00,
2013-04-29 00:01:00,74.3,66.6,30.04,SSW,197,0.0,1.0,77,0.96,,,0.02,Wunderground v.1.15,2013-04-29 04:01:00,
2013-04-29 00:02:00,74.0,66.7,30.04,SSW,197,0.0,1.0,78,1.36,,,0.05,Wunderground v.1.15,2013-04-29 04:02:00,
2013-04-29 00:03:00,73.7,66.4,30.04,SSW,207,0.0,1.0,78,0.39,,,0.05,Wunderground v.1.15,2013-04-29 04:03:00,
2013-04-29 00:04:00,73.5,66.6,30.04,SSW,207,0.0,1.0,79,0.27,,,0.05,Wunderground v.1.15,2013-04-29 04:04:00,
2013-04-29 00:09:00,72.5,67.0,30.03,SSW,205,0.0,1.0,83,0.08,,,0.05,Wunderground v.1.15,2013-04-29 04:09:00,
2013-04-29 00:14:00,71.6,66.5,30.03,SSE,153,0.0,0.0,84,0.05,,,0.05,Wunderground v.1.15,2013-04-29 04:14:00,
2013-04-29 00:19:00,71.2,66.5,30.04,ESE,122,0.0,1.0,85,0.00,,,0.05,Wunderground v.1.15,2013-04-29 04:19:00,
2013-04-29 00:24:00,70.9,66.5,30.04,West,267,1.0,1.0,86,1.37,,,0.12,Wunderground v.1.15,2013-04-29 04:24:00,
2013-04-29 00:27:00,70.6,66.2,30.05,SW,232,1.0,1.0,86,1.68,,,0.21,Wunderground v.1.15,2013-04-29 04:27:00,
2013-04-29 00:32:00,69.9,65.9,30.04,SW,232,0.0,1.0,87,1.25,,,0.35,Wunderground v.1.15,2013-04-29 04:32:00,
2013-04-29 00:37:00,69.1,65.4,30.04,SW,235,0.0,1.0,88,0.24,,,0.39,Wunderground v.1.15,2013-04-29 04:37:00,
2013-04-29 00:42:00,68.8,65.4,30.04,SW,235,0.0,0.0,89,0.15,,,0.40,Wunderground v.1.15,2013-04-29 04:42:00,
2013-04-29 00:47:00,68.7,65.6,30.04,SSW,194,0.0,1.0,90,0.07,,,0.40,Wunderground v.1.15,2013-04-29 04:47:00,
2013-04-29 00:53:00,68.5,65.8,30.04,SSW,194,0.0,0.0,91,0.04,,,0.40,Wunderground v.1.15,2013-04-29 04:53:00,
2013-04-29 00:58:00,68.5,65.8,30.04,SSW,198,0.0,0.0,91,0.00,,,0.40,Wunderground v.1.15,2013-04-29 04:58:00,
2013-04-29 01:04:00,68.3,65.3,30.03,South,172,0.0,0.0,90,0.00,,,0.40,Wunderground v.1.15,2013-04-29 05:04:00,
2013-04-29 01:09:00,68.2,64.8,30.03,ESE,113,1.0,2.0,89,0.00,,,0.40,Wunderground v.1.15,2013-04-29 05:09:00,
2013-04-29 01:14:00,68.4,64.7,30.03,ESE,106,1.0,3.0,88,0.00,,,0.40,Wunderground v.1.15,2013-04-29 05:14:00,
2013-04-29 01:19:00,68.8,64.8,30.03,ESE,122,1.0,4.0,87,0.00,,,0.40,Wunderground v.1.15,2013-04-29 05:19:00,
2013-04-29 01:24:00,69.2,64.5,30.03,ESE,123,2.0,3.0,85,0.00,,,0.40,Wunderground v.1.15,2013-04-29 05:24:00,
2013-04-29 01:29:00,69.4,64.7,30.03,SE,126,2.0,3.0,85,0.00,,,0.40,Wunderground v.1.15,2013-04-29 05:29:00,
2013-04-29 01:35:00,69.6,64.2,30.03,ESE,118,1.0,3.0,83,0.00,,,0.40,Wunderground v.1.15,2013-04-29 05:35:00,
2013-04-29 01:40:00,69.9,64.5,30.03,SE,131,2.0,2.0,83,0.00,,,0.40,Wunderground v.1.15,2013-04-29 05:40:00,
2013-04-29 01:45:00,70.2,64.4,30.02,SE,134,2.0,2.0,82,0.00,,,0.40,Wunderground v.1.15,2013-04-29 05:45:00,
2013-04-29 01:50:00,70.3,64.5,30.02,SSE,149,1.0,1.0,82,0.00,,,0.40,Wunderground v.1.15,2013-04-29 05:50:00,
2013-04-29 01:55:00,70.4,64.3,30.02,SSE,161,1.0,2.0,81,0.00,,,0.40,Wunderground v.1.15,2013-04-29 05:55:00,
2013-04-29 02:00:00,70.6,64.1,30.01,SE,142,2.0,2.0,80,0.00,,,0.40,Wunderground v.1.15,2013-04-29 06:00:00,
2013-04-29 02:06:00,70.9,64.1,30.02,South,187,2.0,6.0,79,0.00,,,0.40,Wunderground v.1.15,2013-04-29 06:06:00,
2013-04-29 02:11:00,70.9,64.4,30.02,WSW,242,1.0,1.0,80,0.00,,,0.40,Wunderground v.1.15,2013-04-29 06:11:00,
2013-04-29 02:16:00,70.8,64.3,30.02,SE,142,1.0,2.0,80,0.00,,,0.40,Wunderground v.1.15,2013-04-29 06:16:00,
2013-04-29 02:21:00,70.8,64.3,30.01,SE,138,1.0,1.0,80,0.00,,,0.40,Wunderground v.1.15,2013-04-29 06:21:00,
2013-04-29 02:26:00,71.0,64.2,30.01,SE,132,1.0,2.0,79,0.00,,,0.40,Wunderground v.1.15,2013-04-29 06:26:00,
2013-04-29 02:31:00,71.0,64.5,30.01,West,271,1.0,1.0,80,0.00,,,0.40,Wunderground v.1.15,2013-04-29 06:31:00,
2013-04-29 02:36:00,71.0,64.2,30.02,SSE,166,1.0,2.0,79,0.00,,,0.40,Wunderground v.1.15,2013-04-29 06:36:00,
2013-04-29 02:41:00,71.0,64.2,30.02,West,281,1.0,1.0,79,0.00,,,0.40,Wunderground v.1.15,2013-04-29 06:41:00,
2013-04-29 02:46:00,71.1,64.3,30.02,SW,218,1.0,1.0,79,0.00,,,0.40,Wunderground v.1.15,2013-04-29 06:46:00,
2013-04-29 02:51:00,71.1,64.3,30.01,SW,233,1.0,2.0,79,0.00,,,0.40,Wunderground v.1.15,2013-04-29 06:51:00,
2013-04-29 02:56:00,71.0,63.8,30.01,SSW,193,1.0,2.0,78,0.00,,,0.40,Wunderground v.1.15,2013-04-29 06:56:00,
2013-04-29 03:01:00,71.1,63.9,30.01,South,176,1.0,2.0,78,0.00,,,0.40,Wunderground v.1.15,2013-04-29 07:01:00,
2013-04-29 03:06:00,71.2,63.6,30.01,SE,141,1.0,2.0,77,0.00,,,0.40,Wunderground v.1.15,2013-04-29 07:06:00,
2013-04-29 03:11:00,71.2,63.6,30.01,SE,128,1.0,1.0,77,0.00,,,0.40,Wunderground v.1.15,2013-04-29 07:11:00,
2013-04-29 03:16:00,71.2,64.0,30.01,SE,146,0.0,1.0,78,0.00,,,0.40,Wunderground v.1.15,2013-04-29 07:16:00,
2013-04-29 03:21:00,71.3,63.7,30.01,South,174,1.0,1.0,77,0.00,,,0.40,Wunderground v.1.15,2013-04-29 07:21:00,
2013-04-29 03:27:00,71.4,63.4,30.00,SE,125,1.0,3.0,76,0.00,,,0.40,Wunderground v.1.15,2013-04-29 07:27:00,
2013-04-29 03:32:00,71.5,63.9,30.00,SSW,195,1.0,2.0,77,0.00,,,0.40,Wunderground v.1.15,2013-04-29 07:32:00,
2013-04-29 03:37:00,71.5,63.9,30.01,SSE,160,1.0,2.0,77,0.00,,,0.40,Wunderground v.1.15,2013-04-29 07:37:00,
2013-04-29 03:42:00,71.5,63.9,30.00,SSE,160,0.0,1.0,77,0.00,,,0.40,Wunderground v.1.15,2013-04-29 07:42:00,
2013-04-29 03:47:00,71.5,63.9,30.00,SSE,160,1.0,2.0,77,0.00,,,0.40,Wunderground v.1.15,2013-04-29 07:47:00,
2013-04-29 03:52:00,71.5,63.5,30.01,West,269,1.0,1.0,76,0.00,,,0.40,Wunderground v.1.15,2013-04-29 07:52:00,
2013-04-29 03:57:00,71.5,63.5,30.00,SSW,195,1.0,1.0,76,0.00,,,0.40,Wunderground v.1.15,2013-04-29 07:57:00,
2013-04-29 04:02:00,71.5,63.2,30.00,SSE,163,0.0,0.0,75,0.00,,,0.40,Wunderground v.1.15,2013-04-29 08:02:00,
2013-04-29 04:07:00,71.5,63.5,30.00,SE,129,0.0,1.0,76,0.00,,,0.40,Wunderground v.1.15,2013-04-29 08:07:00,
2013-04-29 04:12:00,71.5,63.2,30.00,South,187,0.0,0.0,75,0.00,,,0.40,Wunderground v.1.15,2013-04-29 08:12:00,
2013-04-29 04:17:00,71.4,63.1,30.00,SSE,153,0.0,0.0,75,0.00,,,0.40,Wunderground v.1.15,2013-04-29 08:17:00,
2013-04-29 04:22:00,71.5,63.2,30.00,SE,145,0.0,0.0,75,0.00,,,0.40,Wunderground v.1.15,2013-04-29 08:22:00,
2013-04-29 04:28:00,71.4,63.1,30.01,SW,235,0.0,0.0,75,0.00,,,0.40,Wunderground v.1.15,2013-04-29 08:28:00,
2013-04-29 04:34:00,71.4,63.4,30.00,SW,222,0.0,0.0,76,0.00,,,0.40,Wunderground v.1.15,2013-04-29 08:34:00,
2013-04-29 04:39:00,71.4,63.4,30.00,WNW,302,0.0,0.0,76,0.00,,,0.40,Wunderground v.1.15,2013-04-29 08:39:00,
2013-04-29 04:44:00,71.5,63.5,30.00,SSE,160,0.0,1.0,76,0.00,,,0.40,Wunderground v.1.15,2013-04-29 08:44:00,
2013-04-29 04:49:00,71.5,63.5,30.00,SSE,160,0.0,1.0,76,0.00,,,0.40,Wunderground v.1.15,2013-04-29 08:49:00,
2013-04-29 04:54:00,71.4,63.4,30.00,SSE,160,0.0,0.0,76,0.00,,,0.40,Wunderground v.1.15,2013-04-29 08:54:00,
2013-04-29 04:59:00,71.4,63.8,30.00,SSE,160,0.0,0.0,77,0.00,,,0.40,Wunderground v.1.15,2013-04-29 08:59:00,
2013-04-29 05:05:00,71.3,63.7,30.00,South,172,0.0,0.0,77,0.00,,,0.40,Wunderground v.1.15,2013-04-29 09:05:00,
2013-04-29 05:10:00,71.4,63.8,30.00,SW,216,0.0,0.0,77,0.00,,,0.40,Wunderground v.1.15,2013-04-29 09:10:00,
2013-04-29 05:15:00,71.6,64.4,30.00,SE,131,0.0,1.0,78,0.00,,,0.40,Wunderground v.1.15,2013-04-29 09:15:00,
2013-04-29 05:20:00,71.6,64.0,30.00,SSE,152,0.0,0.0,77,0.00,,,0.40,Wunderground v.1.15,2013-04-29 09:20:00,
2013-04-29 05:25:00,71.7,64.1,30.00,SSW,198,0.0,1.0,77,0.00,,,0.40,Wunderground v.1.15,2013-04-29 09:25:00,
2013-04-29 05:30:00,71.7,63.7,30.00,ESE,117,0.0,0.0,76,0.00,,,0.40,Wunderground v.1.15,2013-04-29 09:30:00,
2013-04-29 05:35:00,71.8,63.8,30.00,SSE,163,0.0,1.0,76,0.00,,,0.40,Wunderground v.1.15,2013-04-29 09:35:00,
2013-04-29 05:40:00,71.8,63.8,30.00,SSE,166,0.0,0.0,76,0.00,,,0.40,Wunderground v.1.15,2013-04-29 09:40:00,
2013-04-29 05:45:00,71.8,64.2,30.00,SW,232,0.0,0.0,77,0.00,,,0.40,Wunderground v.1.15,2013-04-29 09:45:00,
2013-04-29 05:50:00,71.8,63.8,30.01,SSE,160,0.0,0.0,76,0.00,,,0.40,Wunderground v.1.15,2013-04-29 09:50:00,
2013-04-29 05:55:00,71.8,63.8,30.01,SSE,167,0.0,2.0,76,0.00,,,0.40,Wunderground v.1.15,2013-04-29 09:55:00,
2013-04-29 06:00:00,71.9,63.9,30.01,SSE,148,0.0,0.0,76,0.00,,,0.40,Wunderground v.1.15,2013-04-29 10:00:00,
2013-04-29 06:06:00,71.9,63.9,30.00,SSE,148,0.0,0.0,76,0.00,,,0.40,Wunderground v.1.15,2013-04-29 10:06:00,
2013-04-29 06:12:00,72.0,64.0,30.00,SE,130,0.0,0.0,76,0.00,,,0.40,Wunderground v.1.15,2013-04-29 10:12:00,
2013-04-29 06:17:00,72.0,64.0,30.00,SSW,202,0.0,0.0,76,0.00,,,0.40,Wunderground v.1.15,2013-04-29 10:17:00,
2013-04-29 06:22:00,71.9,63.9,30.00,SSW,203,0.0,0.0,76,0.00,,,0.40,Wunderground v.1.15,2013-04-29 10:22:00,
2013-04-29 06:27:00,71.9,63.9,30.00,SSE,162,0.0,1.0,76,0.00,,,0.40,Wunderground v.1.15,2013-04-29 10:27:00,
2013-04-29 06:32:00,71.9,63.9,30.00,WNW,284,0.0,0.0,76,0.00,,,0.40,Wunderground v.1.15,2013-04-29 10:32:00,
2013-04-29 06:37:00,71.9,63.9,30.00,SSW,205,0.0,1.0,76,0.00,,,0.40,Wunderground v.1.15,2013-04-29 10:37:00,
2013-04-29 06:42:00,71.9,63.5,30.00,SE,132,0.0,0.0,75,0.00,,,0.40,Wunderground v.1.15,2013-04-29 10:42:00,
2013-04-29 06:47:00,72.0,63.6,30.00,ESE,123,0.0,1.0,75,0.00,,,0.40,Wunderground v.1.15,2013-04-29 10:47:00,
2013-04-29 06:52:00,72.0,63.6,30.00,SSE,153,1.0,2.0,75,0.00,,,0.40,Wunderground v.1.15,2013-04-29 10:52:00,
2013-04-29 06:57:00,72.1,64.1,30.01,SE,132,1.0,2.0,76,0.00,,,0.40,Wunderground v.1.15,2013-04-29 10:57:00,
2013-04-29 07:02:00,72.0,64.0,30.01,SSE,155,1.0,1.0,76,0.00,,,0.40,Wunderground v.1.15,2013-04-29 11:02:00,
2013-04-29 07:07:00,71.9,63.9,30.01,South,169,0.0,1.0,76,0.00,,,0.40,Wunderground v.1.15,2013-04-29 11:07:00,
2013-04-29 07:12:00,71.8,63.8,30.01,SSE,160,0.0,0.0,76,0.00,,,0.40,Wunderground v.1.15,2013-04-29 11:12:00,
2013-04-29 07:18:00,71.8,63.8,30.02,SSE,162,1.0,2.0,76,0.00,,,0.40,Wunderground v.1.15,2013-04-29 11:18:00,
2013-04-29 07:23:00,71.8,64.2,30.02,SE,145,1.0,2.0,77,0.00,,,0.40,Wunderground v.1.15,2013-04-29 11:23:00,
2013-04-29 07:28:00,71.8,64.2,30.02,SSE,163,1.0,3.0,77,0.00,,,0.40,Wunderground v.1.15,2013-04-29 11:28:00,
2013-04-29 07:33:00,71.7,64.1,30.03,SE,146,0.0,2.0,77,0.00,,,0.40,Wunderground v.1.15,2013-04-29 11:33:00,
2013-04-29 07:38:00,71.7,64.1,30.03,ESE,111,0.0,2.0,77,0.00,,,0.40,Wunderground v.1.15,2013-04-29 11:38:00,
2013-04-29 07:43:00,71.7,64.1,30.03,WSW,238,0.0,1.0,77,0.00,,,0.40,Wunderground v.1.15,2013-04-29 11:43:00,
2013-04-29 07:48:00,71.8,64.2,30.03,SE,142,0.0,2.0,77,0.00,,,0.40,Wunderground v.1.15,2013-04-29 11:48:00,
2013-04-29 07:53:00,71.8,64.6,30.03,ESE,114,0.0,1.0,78,0.00,,,0.40,Wunderground v.1.15,2013-04-29 11:53:00,
2013-04-29 07:58:00,71.9,64.3,30.03,SSE,152,0.0,1.0,77,0.00,,,0.40,Wunderground v.1.15,2013-04-29 11:58:00,
2013-04-29 08:04:00,72.0,64.8,30.03,SSE,149,0.0,0.0,78,0.00,,,0.40,Wunderground v.1.15,2013-04-29 12:04:00,
2013-04-29 08:09:00,72.0,64.4,30.03,SE,125,0.0,1.0,77,0.00,,,0.40,Wunderground v.1.15,2013-04-29 12:09:00,
2013-04-29 08:14:00,72.2,65.0,30.03,East,87,0.0,1.0,78,0.00,,,0.40,Wunderground v.1.15,2013-04-29 12:14:00,
2013-04-29 08:19:00,72.3,64.7,30.03,ENE,64,0.0,1.0,77,0.00,,,0.40,Wunderground v.1.15,2013-04-29 12:19:00,
2013-04-29 08:24:00,72.4,65.2,30.03,SE,126,1.0,2.0,78,0.00,,,0.40,Wunderground v.1.15,2013-04-29 12:24:00,
2013-04-29 08:29:00,72.6,65.3,30.03,SE,128,1.0,2.0,78,0.00,,,0.40,Wunderground v.1.15,2013-04-29 12:29:00,
2013-04-29 08:34:00,72.9,65.3,30.03,ESE,122,1.0,3.0,77,0.00,,,0.40,Wunderground v.1.15,2013-04-29 12:34:00,
2013-04-29 08:40:00,73.1,65.1,30.03,ENE,71,1.0,1.0,76,0.00,,,0.40,Wunderground v.1.15,2013-04-29 12:40:00,
2013-04-29 08:45:00,73.3,65.3,30.02,SE,146,1.0,5.0,76,0.00,,,0.40,Wunderground v.1.15,2013-04-29 12:45:00,
2013-04-29 08:50:00,73.8,66.1,30.03,ESE,122,1.0,2.0,77,0.00,,,0.40,Wunderground v.1.15,2013-04-29 12:50:00,
2013-04-29 08:55:00,74.0,65.6,30.03,SE,129,1.0,2.0,75,0.00,,,0.40,Wunderground v.1.15,2013-04-29 12:55:00,
2013-04-29 09:00:00,74.4,66.3,30.03,SSE,152,1.0,1.0,76,0.00,,,0.40,Wunderground v.1.15,2013-04-29 13:00:00,
2013-04-29 09:06:00,74.7,65.9,30.03,SE,143,1.0,2.0,74,0.00,,,0.40,Wunderground v.1.15,2013-04-29 13:06:00,
2013-04-29 09:11:00,75.1,66.2,30.03,SE,131,1.0,3.0,74,0.00,,,0.40,Wunderground v.1.15,2013-04-29 13:11:00,
2013-04-29 09:16:00,75.4,66.5,30.03,East,101,1.0,3.0,74,0.00,,,0.40,Wunderground v.1.15,2013-04-29 13:16:00,
2013-04-29 09:22:00,76.1,67.2,30.03,SSE,147,1.0,2.0,74,0.00,,,0.40,Wunderground v.1.15,2013-04-29 13:22:00,
2013-04-29 09:27:00,76.6,66.9,30.03,SE,127,1.0,2.0,72,0.00,,,0.40,Wunderground v.1.15,2013-04-29 13:27:00,
2013-04-29 09:33:00,76.6,66.9,30.03,SE,145,1.0,2.0,72,0.00,,,0.40,Wunderground v.1.15,2013-04-29 13:33:00,
2013-04-29 09:38:00,77.0,67.3,30.03,ESE,115,1.0,3.0,72,0.00,,,0.40,Wunderground v.1.15,2013-04-29 13:38:00,
2013-04-29 09:43:00,77.2,67.1,30.03,WSW,238,2.0,5.0,71,0.00,,,0.40,Wunderground v.1.15,2013-04-29 13:43:00,
2013-04-29 09:48:00,77.4,66.8,30.03,ESE,113,2.0,5.0,70,0.00,,,0.40,Wunderground v.1.15,2013-04-29 13:48:00,
2013-04-29 09:53:00,77.4,66.8,30.03,SSE,155,2.0,5.0,70,0.00,,,0.40,Wunderground v.1.15,2013-04-29 13:53:00,
2013-04-29 09:58:00,77.2,66.7,30.04,SSE,149,2.0,5.0,70,0.00,,,0.40,Wunderground v.1.15,2013-04-29 13:58:00,
2013-04-29 10:04:00,77.4,66.8,30.04,SSE,162,2.0,5.0,70,0.00,,,0.40,Wunderground v.1.15,2013-04-29 14:04:00,
2013-04-29 10:09:00,77.4,67.3,30.04,ESE,103,2.0,5.0,71,0.00,,,0.40,Wunderground v.1.15,2013-04-29 14:09:00,
2013-04-29 10:14:00,77.8,67.2,30.03,SSE,147,2.0,2.0,70,0.00,,,0.40,Wunderground v.1.15,2013-04-29 14:14:00,
2013-04-29 10:19:00,78.2,67.6,30.03,WSW,242,1.0,2.0,70,0.00,,,0.40,Wunderground v.1.15,2013-04-29 14:19:00,
2013-04-29 10:24:00,78.5,67.5,30.03,SSE,153,1.0,3.0,69,0.00,,,0.40,Wunderground v.1.15,2013-04-29 14:24:00,
2013-04-29 10:29:00,78.9,67.9,30.03,ENE,78,1.0,3.0,69,0.00,,,0.40,Wunderground v.1.15,2013-04-29 14:29:00,
2013-04-29 10:34:00,79.3,67.8,30.03,SSE,155,1.0,2.0,68,0.00,,,0.40,Wunderground v.1.15,2013-04-29 14:34:00,
2013-04-29 10:40:00,79.6,68.5,30.03,South,176,1.0,1.0,69,0.00,,,0.40,Wunderground v.1.15,2013-04-29 14:40:00,
2013-04-29 10:45:00,80.2,68.2,30.03,ESE,120,1.0,3.0,67,0.00,,,0.40,Wunderground v.1.15,2013-04-29 14:45:00,
2013-04-29 10:51:00,80.5,68.5,30.03,WSW,246,2.0,3.0,67,0.00,,,0.40,Wunderground v.1.15,2013-04-29 14:51:00,
2013-04-29 10:56:00,80.7,68.7,30.03,WNW,286,2.0,4.0,67,0.00,,,0.40,Wunderground v.1.15,2013-04-29 14:56:00,
2013-04-29 11:01:00,80.8,68.4,30.02,SE,134,2.0,3.0,66,0.00,,,0.40,Wunderground v.1.15,2013-04-29 15:01:00,
2013-04-29 11:06:00,81.0,68.6,30.02,ESE,116,2.0,3.0,66,0.00,,,0.40,Wunderground v.1.15,2013-04-29 15:06:00,
2013-04-29 11:11:00,80.7,68.3,30.02,ESE,123,2.0,2.0,66,0.00,,,0.40,Wunderground v.1.15,2013-04-29 15:11:00,
2013-04-29 11:17:00,81.0,68.6,30.03,SE,125,2.0,6.0,66,0.00,,,0.40,Wunderground v.1.15,2013-04-29 15:17:00,
2013-04-29 11:22:00,81.5,68.6,30.02,South,169,2.0,5.0,65,0.00,,,0.40,Wunderground v.1.15,2013-04-29 15:22:00,
2013-04-29 11:27:00,81.5,69.0,30.02,South,191,2.0,5.0,66,0.00,,,0.40,Wunderground v.1.15,2013-04-29 15:27:00,
2013-04-29 11:33:00,82.0,69.1,30.03,SSE,160,2.0,3.0,65,0.00,,,0.40,Wunderground v.1.15,2013-04-29 15:33:00,
2013-04-29 11:38:00,82.4,69.0,30.03,WSW,252,2.0,3.0,64,0.00,,,0.40,Wunderground v.1.15,2013-04-29 15:38:00,
2013-04-29 11:43:00,82.4,68.5,30.03,ENE,72,2.0,3.0,63,0.00,,,0.40,Wunderground v.1.15,2013-04-29 15:43:00,
2013-04-29 11:48:00,82.0,68.6,30.03,ENE,60,2.0,3.0,64,0.00,,,0.40,Wunderground v.1.15,2013-04-29 15:48:00,
2013-04-29 11:53:00,82.2,68.8,30.03,SE,133,2.0,2.0,64,0.00,,,0.40,Wunderground v.1.15,2013-04-29 15:53:00,
2013-04-29 11:58:00,82.6,69.2,30.03,NW,318,2.0,4.0,64,0.00,,,0.40,Wunderground v.1.15,2013-04-29 15:58:00,
2013-04-29 12:04:00,83.0,68.6,30.03,SE,135,2.0,4.0,62,0.00,,,0.40,Wunderground v.1.15,2013-04-29 16:04:00,
2013-04-29 12:09:00,82.8,68.4,30.03,SE,125,2.0,4.0,62,0.00,,,0.40,Wunderground v.1.15,2013-04-29 16:09:00,
2013-04-29 12:15:00,82.8,68.4,30.03,SSW,210,2.0,5.0,62,0.00,,,0.40,Wunderground v.1.15,2013-04-29 16:15:00,
2013-04-29 12:20:00,82.8,68.4,30.03,SSE,161,2.0,2.0,62,0.00,,,0.40,Wunderground v.1.15,2013-04-29 16:20:00,
2013-04-29 12:25:00,83.1,68.7,30.03,SE,143,2.0,3.0,62,0.00,,,0.40,Wunderground v.1.15,2013-04-29 16:25:00,
2013-04-29 12:30:00,83.4,69.0,30.03,SE,141,1.0,1.0,62,0.00,,,0.40,Wunderground v.1.15,2013-04-29 16:30:00,
2013-04-29 12:35:00,84.0,69.1,30.03,SSE,161,1.0,2.0,61,0.00,,,0.40,Wunderground v.1.15,2013-04-29 16:35:00,
2013-04-29 12:40:00,84.1,68.7,30.02,SE,134,1.0,2.0,60,0.00,,,0.40,Wunderground v.1.15,2013-04-29 16:40:00,
2013-04-29 12:45:00,84.0,68.1,30.02,South,182,2.0,3.0,59,0.00,,,0.40,Wunderground v.1.15,2013-04-29 16:45:00,
2013-04-29 12:50:00,83.5,67.7,30.02,South,169,2.0,2.0,59,0.00,,,0.40,Wunderground v.1.15,2013-04-29 16:50:00,
2013-04-29 12:55:00,83.6,67.8,30.02,South,183,1.0,2.0,59,0.00,,,0.40,Wunderground v.1.15,2013-04-29 16:55:00,
2013-04-29 13:00:00,83.3,68.0,30.02,West,278,1.0,1.0,60,0.00,,,0.40,Wunderground v.1.15,2013-04-29 17:00:00,
2013-04-29 13:06:00,82.8,68.4,30.02,SW,231,1.0,3.0,62,0.00,,,0.40,Wunderground v.1.15,2013-04-29 17:06:00,
2013-04-29 13:11:00,83.0,68.6,30.01,SSE,162,2.0,2.0,62,0.00,,,0.40,Wunderground v.1.15,2013-04-29 17:11:00,
2013-04-29 13:16:00,82.9,68.1,30.02,SSE,166,2.0,2.0,61,0.00,,,0.40,Wunderground v.1.15,2013-04-29 17:16:00,
2013-04-29 13:21:00,82.9,68.5,30.01,SSE,159,2.0,2.0,62,0.00,,,0.40,Wunderground v.1.15,2013-04-29 17:21:00,
2013-04-29 13:26:00,83.2,69.3,30.01,SW,231,1.0,2.0,63,0.00,,,0.40,Wunderground v.1.15,2013-04-29 17:26:00,
2013-04-29 13:31:00,82.7,68.4,30.01,SW,233,1.0,2.0,62,0.00,,,0.40,Wunderground v.1.15,2013-04-29 17:31:00,
2013-04-29 13:36:00,82.3,68.4,30.01,SSE,162,2.0,3.0,63,0.00,,,0.40,Wunderground v.1.15,2013-04-29 17:36:00,
2013-04-29 13:41:00,82.2,68.8,30.01,SW,229,2.0,2.0,64,0.00,,,0.40,Wunderground v.1.15,2013-04-29 17:41:00,
2013-04-29 13:46:00,82.4,68.5,30.01,SW,235,2.0,5.0,63,0.00,,,0.40,Wunderground v.1.15,2013-04-29 17:46:00,
2013-04-29 13:51:00,82.7,68.8,30.01,WSW,246,2.0,2.0,63,0.00,,,0.40,Wunderground v.1.15,2013-04-29 17:51:00,
2013-04-29 13:56:00,82.9,69.5,30.00,SW,224,1.0,2.0,64,0.00,,,0.40,Wunderground v.1.15,2013-04-29 17:56:00,
2013-04-29 14:02:00,83.6,69.7,30.00,SSE,148,1.0,1.0,63,0.00,,,0.40,Wunderground v.1.15,2013-04-29 18:02:00,
2013-04-29 14:07:00,83.5,68.2,30.00,SW,235,2.0,3.0,60,0.00,,,0.40,Wunderground v.1.15,2013-04-29 18:07:00,
2013-04-29 14:12:00,83.7,68.3,30.00,WNW,300,2.0,4.0,60,0.00,,,0.40,Wunderground v.1.15,2013-04-29 18:12:00,
2013-04-29 14:17:00,83.3,67.5,30.00,South,180,2.0,4.0,59,0.00,,,0.40,Wunderground v.1.15,2013-04-29 18:17:00,
2013-04-29 14:22:00,83.1,68.3,30.00,WSW,238,2.0,2.0,61,0.00,,,0.40,Wunderground v.1.15,2013-04-29 18:22:00,
2013-04-29 14:28:00,83.0,68.2,29.99,South,176,2.0,3.0,61,0.00,,,0.40,Wunderground v.1.15,2013-04-29 18:28:00,
2013-04-29 14:33:00,83.0,68.6,29.99,WSW,257,1.0,2.0,62,0.00,,,0.40,Wunderground v.1.15,2013-04-29 18:33:00,
2013-04-29 14:38:00,83.2,68.3,29.99,South,177,1.0,2.0,61,0.00,,,0.40,Wunderground v.1.15,2013-04-29 18:38:00,
2013-04-29 14:44:00,83.3,68.4,29.99,South,179,1.0,4.0,61,0.00,,,0.40,Wunderground v.1.15,2013-04-29 18:44:00,
2013-04-29 14:50:00,83.2,68.3,29.99,SSW,195,2.0,2.0,61,0.00,,,0.40,Wunderground v.1.15,2013-04-29 18:50:00,
2013-04-29 14:55:00,83.3,68.4,29.99,SW,235,1.0,2.0,61,0.00,,,0.40,Wunderground v.1.15,2013-04-29 18:55:00,
2013-04-29 15:01:00,82.9,68.1,29.99,WNW,293,1.0,1.0,61,0.00,,,0.40,Wunderground v.1.15,2013-04-29 19:01:00,
2013-04-29 15:06:00,82.7,68.4,29.99,West,277,1.0,4.0,62,0.00,,,0.40,Wunderground v.1.15,2013-04-29 19:06:00,
2013-04-29 15:11:00,82.7,69.3,29.98,SW,231,1.0,1.0,64,0.00,,,0.40,Wunderground v.1.15,2013-04-29 19:11:00,
2013-04-29 15:17:00,82.8,68.4,29.98,SSW,193,1.0,2.0,62,0.00,,,0.40,Wunderground v.1.15,2013-04-29 19:17:00,
2013-04-29 15:22:00,82.8,68.4,29.98,South,185,2.0,5.0,62,0.00,,,0.40,Wunderground v.1.15,2013-04-29 19:22:00,
2013-04-29 15:28:00,83.0,69.1,29.97,South,170,2.0,7.0,63,0.00,,,0.40,Wunderground v.1.15,2013-04-29 19:28:00,
2013-04-29 15:34:00,82.4,69.0,29.97,WSW,242,2.0,2.0,64,0.00,,,0.40,Wunderground v.1.15,2013-04-29 19:34:00,
2013-04-29 15:40:00,81.7,68.8,29.97,ESE,123,2.0,2.0,65,0.00,,,0.40,Wunderground v.1.15,2013-04-29 19:40:00,
2013-04-29 15:45:00,81.7,69.7,29.96,SW,218,2.0,2.0,67,0.00,,,0.40,Wunderground v.1.15,2013-04-29 19:45:00,
2013-04-29 15:50:00,81.8,69.8,29.96,WSW,246,1.0,1.0,67,0.00,,,0.40,Wunderground v.1.15,2013-04-29 19:50:00,
2013-04-29 15:55:00,81.5,69.5,29.96,SSW,207,1.0,3.0,67,0.00,,,0.40,Wunderground v.1.15,2013-04-29 19:55:00,
2013-04-29 16:00:00,81.0,69.0,29.96,SSW,200,2.0,2.0,67,0.00,,,0.40,Wunderground v.1.15,2013-04-29 20:00:00,
2013-04-29 16:06:00,81.1,69.5,29.95,SW,235,2.0,2.0,68,0.00,,,0.40,Wunderground v.1.15,2013-04-29 20:06:00,
2013-04-29 16:11:00,81.4,70.2,29.94,ENE,67,2.0,3.0,69,0.00,,,0.40,Wunderground v.1.15,2013-04-29 20:11:00,
2013-04-29 16:16:00,81.4,69.4,29.94,West,275,1.0,3.0,67,0.00,,,0.40,Wunderground v.1.15,2013-04-29 20:16:00,
2013-04-29 16:21:00,81.0,69.4,29.94,WNW,287,1.0,3.0,68,0.00,,,0.40,Wunderground v.1.15,2013-04-29 20:21:00,
2013-04-29 16:27:00,80.8,69.2,29.94,WSW,250,2.0,4.0,68,0.00,,,0.40,Wunderground v.1.15,2013-04-29 20:27:00,
2013-04-29 16:32:00,80.7,69.6,29.94,SSW,212,2.0,3.0,69,0.00,,,0.40,Wunderground v.1.15,2013-04-29 20:32:00,
2013-04-29 16:37:00,80.8,69.2,29.94,WSW,240,2.0,5.0,68,0.00,,,0.40,Wunderground v.1.15,2013-04-29 20:37:00,
2013-04-29 16:42:00,80.9,68.9,29.94,South,183,2.0,3.0,67,0.00,,,0.40,Wunderground v.1.15,2013-04-29 20:42:00,
2013-04-29 16:47:00,81.0,69.4,29.93,SW,218,2.0,4.0,68,0.00,,,0.40,Wunderground v.1.15,2013-04-29 20:47:00,
2013-04-29 16:53:00,81.2,69.6,29.93,SW,232,3.0,3.0,68,0.00,,,0.40,Wunderground v.1.15,2013-04-29 20:53:00,
2013-04-29 16:58:00,81.4,70.2,29.93,SW,224,2.0,5.0,69,0.00,,,0.40,Wunderground v.1.15,2013-04-29 20:58:00,
2013-04-29 17:04:00,81.5,70.3,29.93,SE,134,2.0,2.0,69,0.00,,,0.40,Wunderground v.1.15,2013-04-29 21:04:00,
2013-04-29 17:09:00,81.5,69.5,29.93,SW,221,2.0,3.0,67,0.00,,,0.40,Wunderground v.1.15,2013-04-29 21:09:00,
2013-04-29 17:14:00,81.0,69.0,29.93,SW,224,2.0,4.0,67,0.00,,,0.40,Wunderground v.1.15,2013-04-29 21:14:00,
2013-04-29 17:19:00,80.7,69.2,29.93,SW,232,3.0,4.0,68,0.00,,,0.40,Wunderground v.1.15,2013-04-29 21:19:00,
2013-04-29 17:24:00,80.4,69.3,29.93,West,269,2.0,4.0,69,0.00,,,0.40,Wunderground v.1.15,2013-04-29 21:24:00,
2013-04-29 17:29:00,80.3,68.8,29.92,SSW,195,2.0,4.0,68,0.00,,,0.40,Wunderground v.1.15,2013-04-29 21:29:00,
2013-04-29 17:34:00,80.3,69.2,29.93,WSW,238,2.0,5.0,69,0.00,,,0.40,Wunderground v.1.15,2013-04-29 21:34:00,
2013-04-29 17:39:00,80.2,69.1,29.93,SW,235,2.0,5.0,69,0.00,,,0.40,Wunderground v.1.15,2013-04-29 21:39:00,
2013-04-29 17:44:00,80.2,69.5,29.93,South,191,2.0,4.0,70,0.00,,,0.40,Wunderground v.1.15,2013-04-29 21:44:00,
2013-04-29 17:49:00,80.2,69.9,29.93,WSW,243,3.0,4.0,71,0.00,,,0.40,Wunderground v.1.15,2013-04-29 21:49:00,
2013-04-29 17:54:00,80.3,70.0,29.93,East,94,2.0,4.0,71,0.00,,,0.40,Wunderground v.1.15,2013-04-29 21:54:00,
2013-04-29 17:59:00,80.5,70.2,29.93,WSW,257,1.0,4.0,71,0.00,,,0.40,Wunderground v.1.15,2013-04-29 21:59:00,
2013-04-29 18:04:00,80.5,70.2,29.93,South,172,0.0,1.0,71,0.00,,,0.40,Wunderground v.1.15,2013-04-29 22:04:00,
2013-04-29 18:09:00,80.3,70.0,29.93,WSW,245,1.0,2.0,71,0.00,,,0.40,Wunderground v.1.15,2013-04-29 22:09:00,
2013-04-29 18:15:00,79.9,70.1,29.93,East,98,1.0,2.0,72,0.00,,,0.40,Wunderground v.1.15,2013-04-29 22:15:00,
2013-04-29 18:20:00,79.6,70.2,29.93,SW,221,1.0,1.0,73,0.00,,,0.40,Wunderground v.1.15,2013-04-29 22:20:00,
2013-04-29 18:25:00,79.4,70.4,29.93,SE,129,1.0,3.0,74,0.00,,,0.40,Wunderground v.1.15,2013-04-29 22:25:00,
2013-04-29 18:31:00,79.2,70.2,29.94,SSW,197,1.0,1.0,74,0.00,,,0.40,Wunderground v.1.15,2013-04-29 22:31:00,
2013-04-29 18:36:00,79.1,70.5,29.94,West,269,1.0,1.0,75,0.00,,,0.40,Wunderground v.1.15,2013-04-29 22:36:00,
2013-04-29 18:41:00,79.0,70.4,29.94,SSW,210,1.0,4.0,75,0.00,,,0.40,Wunderground v.1.15,2013-04-29 22:41:00,
2013-04-29 18:46:00,78.8,70.2,29.95,WSW,243,1.0,4.0,75,0.00,,,0.40,Wunderground v.1.15,2013-04-29 22:46:00,
2013-04-29 18:51:00,78.7,70.5,29.95,WSW,239,1.0,3.0,76,0.00,,,0.40,Wunderground v.1.15,2013-04-29 22:51:00,
2013-04-29 18:56:00,78.6,70.4,29.95,WSW,240,1.0,3.0,76,0.00,,,0.40,Wunderground v.1.15,2013-04-29 22:56:00,
2013-04-29 19:02:00,78.5,69.9,29.95,SW,226,1.0,3.0,75,0.00,,,0.40,Wunderground v.1.15,2013-04-29 23:02:00,
2013-04-29 19:07:00,78.5,69.9,29.95,SW,236,1.0,4.0,75,0.00,,,0.40,Wunderground v.1.15,2013-04-29 23:07:00,
2013-04-29 19:13:00,78.5,70.3,29.96,WSW,250,1.0,1.0,76,0.00,,,0.40,Wunderground v.1.15,2013-04-29 23:13:00,
2013-04-29 19:18:00,78.4,70.2,29.96,SSW,200,1.0,2.0,76,0.00,,,0.40,Wunderground v.1.15,2013-04-29 23:18:00,
2013-04-29 19:23:00,78.1,70.3,29.96,West,276,1.0,2.0,77,0.00,,,0.40,Wunderground v.1.15,2013-04-29 23:23:00,
2013-04-29 19:28:00,78.0,70.2,29.96,South,178,1.0,2.0,77,0.00,,,0.40,Wunderground v.1.15,2013-04-29 23:28:00,
2013-04-29 19:33:00,77.9,70.5,29.97,SW,222,1.0,2.0,78,0.00,,,0.40,Wunderground v.1.15,2013-04-29 23:33:00,
2013-04-29 19:38:00,77.8,70.4,29.97,SW,225,1.0,2.0,78,0.00,,,0.40,Wunderground v.1.15,2013-04-29 23:38:00,
2013-04-29 19:43:00,77.7,70.7,29.97,SW,222,1.0,1.0,79,0.00,,,0.40,Wunderground v.1.15,2013-04-29 23:43:00,
2013-04-29 19:48:00,77.7,70.7,29.97,SW,236,1.0,2.0,79,0.00,,,0.40,Wunderground v.1.15,2013-04-29 23:48:00,
2013-04-29 19:53:00,77.5,70.8,29.97,SW,214,0.0,1.0,80,0.00,,,0.40,Wunderground v.1.15,2013-04-29 23:53:00,
2013-04-29 19:58:00,77.4,70.7,29.97,SSE,152,0.0,1.0,80,0.00,,,0.40,Wunderground v.1.15,2013-04-29 23:58:00,
2013-04-29 20:04:00,77.2,70.9,29.97,South,181,0.0,2.0,81,0.00,,,0.40,Wunderground v.1.15,2013-04-30 00:04:00,
2013-04-29 20:09:00,77.1,70.8,29.97,South,186,0.0,2.0,81,0.00,,,0.40,Wunderground v.1.15,2013-04-30 00:09:00,
2013-04-29 20:14:00,76.9,71.0,29.97,WSW,242,1.0,1.0,82,0.00,,,0.40,Wunderground v.1.15,2013-04-30 00:14:00,
2013-04-29 20:19:00,76.8,70.9,29.97,WSW,242,1.0,1.0,82,0.00,,,0.40,Wunderground v.1.15,2013-04-30 00:19:00,
2013-04-29 20:24:00,76.7,70.8,29.96,West,259,1.0,1.0,82,0.00,,,0.40,Wunderground v.1.15,2013-04-30 00:24:00,
2013-04-29 20:29:00,76.6,70.7,29.96,South,177,1.0,1.0,82,0.00,,,0.40,Wunderground v.1.15,2013-04-30 00:29:00,
2013-04-29 20:34:00,76.5,70.9,29.96,WSW,240,1.0,1.0,83,0.00,,,0.40,Wunderground v.1.15,2013-04-30 00:34:00,
2013-04-29 20:39:00,76.5,70.9,29.96,South,191,1.0,2.0,83,0.00,,,0.40,Wunderground v.1.15,2013-04-30 00:39:00,
2013-04-29 20:44:00,76.4,70.9,29.96,WSW,246,0.0,1.0,83,0.00,,,0.40,Wunderground v.1.15,2013-04-30 00:44:00,
2013-04-29 20:49:00,76.3,70.8,29.96,SSW,193,0.0,1.0,83,0.00,,,0.40,Wunderground v.1.15,2013-04-30 00:49:00,
2013-04-29 20:54:00,76.2,70.7,29.96,South,169,0.0,1.0,83,0.00,,,0.40,Wunderground v.1.15,2013-04-30 00:54:00,
2013-04-29 20:59:00,76.1,70.9,29.96,SW,231,0.0,1.0,84,0.00,,,0.40,Wunderground v.1.15,2013-04-30 00:59:00,
2013-04-29 21:04:00,76.0,70.8,29.96,WSW,248,0.0,1.0,84,0.00,,,0.40,Wunderground v.1.15,2013-04-30 01:04:00,
2013-04-29 21:09:00,75.9,70.7,29.96,WSW,240,0.0,1.0,84,0.00,,,0.40,Wunderground v.1.15,2013-04-30 01:09:00,
2013-04-29 21:15:00,75.8,70.6,29.96,South,181,0.0,0.0,84,0.00,,,0.40,Wunderground v.1.15,2013-04-30 01:15:00,
2013-04-29 21:20:00,75.6,70.4,29.95,South,181,0.0,0.0,84,0.00,,,0.40,Wunderground v.1.15,2013-04-30 01:20:00,
2013-04-29 21:25:00,75.5,70.7,29.95,South,181,0.0,0.0,85,0.00,,,0.40,Wunderground v.1.15,2013-04-30 01:25:00,
2013-04-29 21:30:00,75.3,70.5,29.95,SSE,165,0.0,0.0,85,0.00,,,0.40,Wunderground v.1.15,2013-04-30 01:30:00,
2013-04-29 21:35:00,75.3,70.8,29.95,SSE,165,0.0,0.0,86,0.00,,,0.40,Wunderground v.1.15,2013-04-30 01:35:00,
2013-04-29 21:40:00,75.1,70.6,29.95,SSE,165,0.0,0.0,86,0.00,,,0.40,Wunderground v.1.15,2013-04-30 01:40:00,
2013-04-29 21:45:00,75.0,70.5,29.95,SSE,167,0.0,0.0,86,0.00,,,0.40,Wunderground v.1.15,2013-04-30 01:45:00,
2013-04-29 21:50:00,74.9,70.4,29.96,SSE,166,0.0,0.0,86,0.00,,,0.40,Wunderground v.1.15,2013-04-30 01:50:00,
2013-04-29 21:56:00,74.8,70.3,29.96,SSE,166,0.0,0.0,86,0.00,,,0.40,Wunderground v.1.15,2013-04-30 01:56:00,
2013-04-29 22:02:00,74.8,70.3,29.96,SSE,166,0.0,0.0,86,0.00,,,0.40,Wunderground v.1.15,2013-04-30 02:02:00,
2013-04-29 22:07:00,74.6,70.1,29.96,SSE,166,0.0,0.0,86,0.00,,,0.40,Wunderground v.1.15,2013-04-30 02:07:00,
2013-04-29 22:12:00,74.5,70.4,29.96,SSE,167,0.0,0.0,87,0.00,,,0.40,Wunderground v.1.15,2013-04-30 02:12:00,
2013-04-29 22:17:00,74.4,70.3,29.96,SSE,167,0.0,0.0,87,0.00,,,0.40,Wunderground v.1.15,2013-04-30 02:17:00,
2013-04-29 22:22:00,74.2,70.1,29.96,SSE,167,0.0,0.0,87,0.00,,,0.40,Wunderground v.1.15,2013-04-30 02:22:00,
2013-04-29 22:27:00,74.2,70.1,29.97,SSE,167,0.0,0.0,87,0.00,,,0.40,Wunderground v.1.15,2013-04-30 02:27:00,
2013-04-29 22:32:00,74.1,70.3,29.97,SSE,167,0.0,0.0,88,0.00,,,0.40,Wunderground v.1.15,2013-04-30 02:32:00,
2013-04-29 22:38:00,74.0,70.2,29.97,SSE,167,0.0,0.0,88,0.00,,,0.40,Wunderground v.1.15,2013-04-30 02:38:00,
2013-04-29 22:43:00,74.0,70.2,29.97,SSE,167,0.0,0.0,88,0.00,,,0.40,Wunderground v.1.15,2013-04-30 02:43:00,
2013-04-29 22:48:00,74.0,70.2,29.97,SSE,167,0.0,0.0,88,0.00,,,0.40,Wunderground v.1.15,2013-04-30 02:48:00,
2013-04-29 22:53:00,73.9,70.1,29.98,SSE,166,0.0,0.0,88,0.00,,,0.40,Wunderground v.1.15,2013-04-30 02:53:00,
2013-04-29 22:58:00,73.9,70.1,29.98,SSE,166,0.0,0.0,88,0.00,,,0.40,Wunderground v.1.15,2013-04-30 02:58:00,
2013-04-29 23:04:00,73.8,70.4,29.98,SSE,166,0.0,0.0,89,0.00,,,0.40,Wunderground v.1.15,2013-04-30 03:04:00,
2013-04-29 23:09:00,73.8,70.4,29.98,SSE,166,0.0,0.0,89,0.00,,,0.40,Wunderground v.1.15,2013-04-30 03:09:00,
2013-04-29 23:14:00,73.9,70.5,29.98,SSE,167,0.0,0.0,89,0.00,,,0.40,Wunderground v.1.15,2013-04-30 03:14:00,
2013-04-29 23:20:00,74.0,70.6,29.98,SSE,166,0.0,0.0,89,0.00,,,0.40,Wunderground v.1.15,2013-04-30 03:20:00,
2013-04-29 23:25:00,74.0,70.6,29.98,SSE,167,0.0,0.0,89,0.00,,,0.40,Wunderground v.1.15,2013-04-30 03:25:00,
2013-04-29 23:30:00,74.1,70.6,29.98,SSE,167,0.0,0.0,89,0.00,,,0.40,Wunderground v.1.15,2013-04-30 03:30:00,
2013-04-29 23:35:00,74.1,70.3,29.97,SSE,166,0.0,0.0,88,0.00,,,0.40,Wunderground v.1.15,2013-04-30 03:35:00,
2013-04-29 23:40:00,74.1,70.6,29.98,SSE,166,0.0,0.0,89,0.00,,,0.40,Wunderground v.1.15,2013-04-30 03:40:00,
2013-04-29 23:45:00,74.0,70.6,29.98,SSE,166,0.0,0.0,89,0.00,,,0.40,Wunderground v.1.15,2013-04-30 03:45:00,
2013-04-29 23:50:00,74.0,70.6,29.98,SSE,167,0.0,0.0,89,0.00,,,0.40,Wunderground v.1.15,2013-04-30 03:50:00,
2013-04-29 23:55:00,74.0,70.6,29.97,SSE,167,0.0,0.0,89,0.00,,,0.40,Wunderground v.1.15,2013-04-30 03:55:00,